Weather Roundup
Issued by NWS

Home | Current Version | Previous Version | Graphics & Text | Print | Product List | Glossary Off
Versions: 1 2 3 4 5 6 7 8 9 10 11 12 13 14 15 16 17 18 19 20 21 22 23 24 25 26 27 28 29 30 31 32 33 34 35 36 37 38 39 40 41 42 43 44 45 46 47 48 49 50

000
NZUS93 KARX 290259
HRRWXR

CURRENT HOURLY OBSERVATIONS ACROSS
MUCH OF THE UPPER MISSISSIPPI VALLEY
NATIONAL WEATHER SERVICE LA CROSSE WI
1000 PM CDT MON JUL 28 2014


...SOUTHEAST MINNESOTA...


CITY           SKY/WX    TMP DP  RH WIND       PRES   REMARKS
ROCHESTER      CLEAR     60  54  80 W6        30.16R
ROCHESTER/MAYO FAIR      66  51  58 W5        30.15R
WINONA         CLEAR     61  55  82 CALM      30.12S
AUSTIN         CLEAR     63  54  72 CALM      30.16R
ALBERT LEA     CLEAR     61  54  77 CALM      30.17R
DODGE CENTER   PTCLDY    61  55  82 W5        30.15S
PRESTON        CLEAR     60  56  88 W6        30.15S
OWATONNA       CLEAR     59  55  88 CALM      30.16R
FARIBAULT      CLEAR     64  54  68 W5        30.15S
$$

...ELSEWHERE IN MINNESOTA...


CITY           SKY/WX    TMP DP  RH WIND       PRES   REMARKS
MINNEAPOLIS    CLEAR     68  56  65 NW5       30.13S
INTNL FALLS    MOCLDY    66  56  70 N8G18     30.13R
DULUTH         CLEAR     64  54  69 NW9       30.11R
RED WING       CLEAR     61  57  88 N3        30.11S
REDWOOD FALLS  CLEAR     62  54  74 NW7       30.18R
MANKATO        CLEAR     64  52  63 W6        30.16S
WORTHINGTON    CLEAR     57  54  88 NW7       30.22S
FAIRMONT       CLEAR     61  52  72 NW6       30.18S
$$

...SOUTHWEST WISCONSIN...


CITY           SKY/WX    TMP DP  RH WIND       PRES   REMARKS
LA CROSSE      CLEAR     64  56  75 CALM      30.11R
PRAIRIE DU CHI CLEAR     60  54  78 CALM      30.12R
BOSCOBEL       CLEAR     58  55  90 CALM      30.12R
LONE ROCK      NOT AVBL
PLATTEVILLE    CLEAR     62  53  73 NW5       30.13R
FORT MC COY    CLEAR     58  54  88 CALM      30.12R
VIROQUA        FAIR      59  54  82 W3        30.13S
WIS DELLS      MOCLDY    62  51  67 W3        30.09S
$$

...ELSEWHERE IN WISCONSIN...


CITY           SKY/WX    TMP DP  RH WIND       PRES   REMARKS
MILWAUKEE      CLOUDY    60  50  69 E7        30.07R
MADISON        MOCLDY    65  52  62 W5        30.08S
GREEN BAY      CLOUDY    62  56  80 W5        30.04S
EAU CLAIRE     NOT AVBL
BLACK RVR FLS  FAIR      56  51  85 CALM      30.10R
MEDFORD        CLEAR     59  55  84 W5        30.10S
WAUSAU         PTCLDY    62  56  80 NW5       30.07S
WIS RAPIDS     CLOUDY    64  56  75 NW6       30.10R
MARSHFIELD     MOCLDY    62  54  74 NW5       30.09S
RICE LAKE      CLEAR     61  55  81 CALM      30.13S
$$

...NORTHEAST IOWA...


CITY           SKY/WX    TMP DP  RH WIND       PRES   REMARKS
WATERLOO       CLEAR     61  56  83 CALM      30.14R
DUBUQUE        CLEAR     58  53  84 NW6       30.13R
DECORAH        CLEAR     59  55  88 CALM      30.14R
MASON CITY     CLEAR     60  55  83 NW5       30.18R
CHARLES CITY   CLEAR     61  57  88 NW3       30.16R
OELWEIN        CLEAR     63  57  82 NW5       30.15S
$$

...ELSEWHERE IN IOWA...


CITY           SKY/WX    TMP DP  RH WIND       PRES   REMARKS
DES MOINES     PTCLDY    67  58  72 W3        30.16R
IOWA CITY      CLEAR     62  58  86 NW5       30.14R
FORT DODGE     CLEAR     59  54  82 CALM      30.19R
MARSHALLTOWN   CLEAR     61  59  93 NW3       30.15R
CEDAR RAPIDS   CLEAR     63  56  78 NW6       30.13R
$$

...NORTHERN ILLINOIS...


CITY           SKY/WX    TMP DP  RH WIND       PRES   REMARKS
CHICAGO-OHARE  CLOUDY    62  49  62 SE3       30.07S
DUPAGE         MOCLDY    63  53  70 W7        30.07S
CHICAGO-MIDWAY MOCLDY    64  50  60 CALM      30.07S
MOLINE         CLEAR     59  53  80 CALM      30.12R
ROCKFORD       PTCLDY    62  53  72 W5        30.11R
STERLING       CLEAR     61  52  72 NW3       30.11R
PEORIA         CLEAR     61  54  77 W3        30.12R
$$

NOTE: "FAIR" INDICATES FEW OR NO CLOUDS BELOW 12,000 FEET WITH NO
SIGNIFICANT WEATHER AND/OR OBSTRUCTIONS TO VISIBILITY. WIND
SPEEDS ARE IN MILES-PER-HOUR.



USA.gov is the U.S. government's official web portal to all federal, state and local government web resources and services.